Reflectivity
-20 -20 -20 -20 -20 -20 -20 -20 -20 -20 -20 -20 -20 -20 -20 -20 -20 -20 -20 -20 -20 -20 -20 -20 -20 -20 -20 -20 -20 -20 -20 -20 -20 -20 -20 -20 -20 -20 -20 -20 -20 -20 -20 -20 -20
-18 2 -3 2 -8 -20 -20 -20 -20 -20 -20 -20 -20 -20 -20 -20 -20 -20 -20 -20 -20 -20 -20 -20 -20 -20 -20 -20 -20 -20 -20 -20 -20 -20 -20 -20 -20 -20 -20 -20 -20 -20 -18 -20 -20
3 -20 -20 -19 -20 -19 -20 -20 -20 -20 -20 -20 -20 -20 -20 -20 -20 -20 -20 -20 -20 -20 -20 -20 -20 -20 -20 -20 -20 -20 -20 -20 -20 -20 -20 -20 -20 -20 -20 -20 -20 -20 -20 -20 -20
-20 -20 -20 -20 -20 -20 -20 -20 -20 -20 -20 -20 -20 -20 -20 -20 -20 -20 -20 -20 -20 -20 -20 -20 -20 -20 -20 -20 -20 -20 -20 -20 -20 -20 -20 -20 -20 -20 -20 -20 -20 -20 -20 -20 -20
-20 -20 -20 -20 -20 -20 -20 -20 -20 -20 -20 -20 -20 -20 -20 -20 -20 -20 -20 -20 -20 -20 -20 -20 -20 -20 -20 -20 -20 -20 -20 -20 -20 -20 -20 -20 -20 -20 -20 -20 -20 -20 -20 -20 -20
-20 -20 -20 -20 -20 -20 -20 -20 -20 -20 -20 -20 -20 -20 -20 -20 -20 -20 -20 -20 -20 -20 -20 -20 -20 -20 -20 -20 -20 -20 -20 -20 -20 -20 -20 -20 -20 -20 -20 -20 -20 -20 -20 -20 -20
-20 -20 -20 -20 -20 -20 -20 -20 -20 -20 -20 -20 -20 -20 -20 -20 -20 -20 -20 -20 -20 -20 -20 -20 -20 -20 -20 -20 -20 -20 -20 -20 -20 -20 -20 -20 -20 -20 -20 -20 -20 -20 -20 -20 -20
-20 -20 -20 -20 -20 -20 -20 -20 -20 -20 -20 -20 -20 -20 -20 -20 -20 -20 -20 -20 -20 -20 -20 -20 -20 -20 -20 -20 -20 -20 -20 -20 -20 -20 -20 -20 -20 -20 -20 -20 -20 -20 -20 -20 -20
-20 -20 -20 -20 -20 -20 -20 -20 -20 -20 -20 -20 -20 -20 -20 -20 -20 -20 -20 -20 -20 -20 -20 -20 -20 -20 -20 -20 -20 -17 -20 -20 -20 -20 -20 -20 -20 -20 -20 -20 -20 -20 -20 -20 -20
-5 -20 -20 -20 -20 -20 -20 -20 -20 -20 -20 -20 -20 -20 -20 -20 -20 -20 -20 -20 -20 -20 -20 -20 -20 -20 -20 -20 -20 -1 -4 -20 -20 -20 -20 -20 -20 -20 -20 -20 -20 -20 -20 -20 -20
7 -20 -20 -20 -20 -20 -20 -20 -20 -20 -20 -20 -20 -20 -20 -20 -20 -20 -20 -20 -20 -20 -20 -20 -20 -20 -20 -20 -16 -1 -20 -20 -20 -20 -20 -20 -20 -20 -20 -20 -20 -20 -20 -20 -20
-3 -20 -20 -20 -20 -20 -20 -20 -20 -20 -20 -20 -20 -20 -20 -20 -20 -20 -20 -20 -20 -20 -20 -20 -20 -20 -20 -20 -4 -18 -20 -20 -20 -20 -20 -20 -20 -20 -20 -20 -20 -20 -20 -20 -20
8 -20 -20 -20 -20 -20 -20 -20 -20 -20 -20 -20 -20 -20 -20 -20 -20 -20 -20 -20 -20 -20 -20 -20 -20 -20 -20 -20 -20 -14 -20 -20 -11 -20 -20 -20 -20 -20 -20 -20 -20 -20 -20 -20 -20
-3 -20 -20 -20 -20 -20 -20 -20 -20 -20 -20 -20 -20 -20 -20 -20 -20 -20 -20 -20 -20 -20 -6 -20 -20 -20 -20 -20 -20 -20 5 -1 8 -20 -20 -20 -20 -20 -20 -20 -20 -20 -20 -20 -20
-20 -20 -20 -20 -20 -20 -20 -20 -20 -13 -20 -20 -20 -20 -20 -20 -20 -20 -20 -20 -12 -17 -6 -10 -20 -20 -20 -20 -20 -20 5 -0 1 -11 -20 -20 -20 -20 -20 -20 -20 -20 -20 -20 -20
2 -20 -20 -20 -20 -20 -20 -20 -18 -8 -20 -20 -20 -20 -20 -20 -20 -20 -20 -9 -15 -16 -20 -20 -20 -20 -20 -7 -20 -20 -20 -20 -16 -5 -20 -20 -20 -20 -20 -20 -20 -20 -20 -20 -20
21 8 -20 -20 -20 -20 -20 -20 -20 -20 -20 -20 -20 -20 -20 -20 -20 -20 -20 -16 -0 -18 -20 -20 -20 -20 -20 -20 -20 -20 -20 -20 3 14 -20 -20 -20 -20 -20 -20 -20 -20 -20 -20 -20
-15 2 -20 -20 -20 -20 -20 -20 -20 -20 -20 -20 -20 -20 -20 -20 -20 -13 -17 -20 -13 -20 -20 -20 -20 -20 -20 -20 -20 -20 -20 -20 -20 12 6 4 -20 -20 -20 -20 -20 -20 -20 -20 -20
15 -1 14 -20 -20 -20 3 1 -20 -20 -20 -20 -20 -20 -20 -20 -20 -20 -20 -8 -20 -19 -20 -20 -18 -20 -20 -16 -20 -20 -20 -20 -20 14 -3 7 -15 -20 -13 -20 -20 -20 -20 -20 -20
16 19 5 4 -20 7 8 -20 -20 -20 -20 -20 -20 -20 -20 -20 -20 -18 -20 -20 -20 -20 -20 -20 -20 -20 -20 -20 -20 -20 -20 -20 -20 -19 6 -20 -20 -17 4 -20 -20 -20 -20 -20 -20
23 23 -1 -20 5 17 -5 -20 -20 -20 -20 -20 -20 -20 -20 -8 -20 -20 -18 -10 -20 -20 -20 -20 -20 -20 -20 -20 -18 -5 -20 -20 -20 -20 -20 11 9 20 5 -9 -20 -20 -20 -20 -20
23 19 23 -20 11 5 9 -20 -20 -20 -20 -20 -20 -20 -20 -20 -20 -20 -20 -20 -20 -20 -20 -20 -20 -20 -20 -20 -20 -20 -20 -20 -20 -20 -20 -20 -2 5 -4 -2 -20 2 -20 -20 -20
22 18 24 21 15 9 -7 -20 -20 -20 -20 -20 -20 -20 -20 -20 -20 -20 -20 -20 -20 -20 -20 -20 -20 -20 -20 -20 -20 -20 -20 -20 -20 -20 -20 10 -0 -16 -16 1 -20 -20 -20 -20 -20
26 21 19 23 13 17 11 -20 -13 -20 -20 -20 -20 -20 -20 -20 -20 -20 -20 -20 -20 -20 -20 -20 -20 -20 -20 -8 -20 -20 -20 -20 -20 -20 -20 -20 -20 -20 -20 -1 -7 -19 -20 -20 -20
23 17 18 20 12 11 14 19 -20 7 -14 -20 -20 -20 -20 -20 -20 -20 -20 -20 -20 -20 -20 -20 -20 -20 -20 -20 -20 -20 -17 -20 -20 -20 -19 -20 -20 -20 -20 -20 -20 -20 -20 -18 -20
19 15 -19 17 20 18 15 11 21 -5 -20 20 -20 -20 -20 -20 -20 -20 -20 -20 -20 -20 -20 5 -9 -20 -20 -20 -20 -20 -20 -20 -20 -20 -20 -20 -20 -20 -20 -20 -20 -20 -20 -20 -20
7 2 21 21 -4 18 21 -8 -20 20 -20 -20 0 -12 -20 -19 -20 -13 -20 -20 -20 -20 11 7 6 2 -20 -20 -20 -20 -20 -20 -20 -20 -20 -20 -20 -15 -16 -20 -20 -20 -20 -20 -20
Wind_Speed
13 15 15 16 16 16 17 17 17 18 18 19 20 22 23 24 27 20 18 7 1 3 6 13 14 14 16 16 18 11 14 15 15 12 9 5 7 13 5 14 14 12 11 10 2
14 15 16 16 16 16 17 18 18 19 20 20 20 21 22 22 25 22 2 6 5 5 16 17 16 16 15 15 14 16 13 19 11 11 12 11 10 12 13 14 14 14 7 7 5
14 15 16 17 18 18 18 17 18 21 21 20 20 20 22 24 16 1 9 5 7 9 21 15 16 15 18 18 18 17 19 21 13 9 11 13 16 15 15 15 15 12 12 13 6
14 15 15 17 18 18 17 17 20 21 22 21 21 21 22 14 8 8 6 3 6 12 18 16 17 17 19 19 19 22 22 19 19 13 13 15 18 19 17 18 16 15 4 7 7
12 14 15 17 19 20 18 19 20 23 22 21 19 17 14 10 20 3 6 8 9 12 15 15 18 17 21 18 19 21 19 21 18 16 17 17 20 20 21 20 18 7 5 8 9
12 12 15 17 19 21 21 20 21 21 22 21 17 9 12 17 6 4 5 8 14 14 17 16 16 15 17 17 19 17 16 17 21 19 18 18 20 20 21 19 8 6 9 9 8
10 13 14 17 18 21 22 22 22 23 23 19 12 9 12 24 8 5 7 10 10 15 18 17 16 15 9 17 17 19 21 21 22 21 22 18 23 25 21 8 9 9 9 8 7
11 10 12 14 16 19 22 24 24 24 19 11 8 10 10 7 9 12 14 17 11 9 12 14 12 17 19 17 16 15 18 21 19 18 15 15 18 19 10 10 12 10 10 8 9
11 11 10 12 16 19 23 26 26 17 7 5 9 9 11 4 10 10 11 15 15 17 17 12 12 17 16 17 17 16 18 21 21 14 11 15 15 7 12 9 10 10 11 9 9
11 11 10 11 14 18 23 30 19 7 11 10 7 7 10 6 6 11 9 7 11 12 15 16 12 17 19 18 18 19 20 22 19 15 10 17 19 18 18 13 11 11 9 10 9
12 10 11 12 15 17 20 15 6 10 12 12 12 17 23 15 6 9 9 9 12 12 19 20 18 23 25 25 23 21 23 18 14 9 6 15 18 18 17 19 15 12 11 10 10
9 7 9 12 15 18 16 8 6 6 16 19 24 25 26 23 13 14 8 10 16 17 19 18 24 22 24 22 22 23 22 22 20 17 8 15 21 19 19 17 16 12 10 10 11
10 8 6 11 16 13 7 4 6 11 10 14 18 13 13 15 18 17 16 15 19 19 20 22 18 24 25 21 21 22 22 20 22 17 9 16 22 22 22 21 20 10 13 11 13
10 8 4 9 11 8 7 4 7 6 8 7 7 6 8 6 10 18 18 19 18 24 20 20 21 18 16 27 22 23 18 19 21 18 14 17 15 15 16 11 11 16 16 14 13
11 9 6 2 12 10 8 9 9 2 8 7 9 8 8 10 7 9 7 16 25 21 15 20 16 23 20 21 18 19 14 15 20 15 17 21 13 13 21 14 8 13 10 14 13
13 9 6 10 9 9 7 10 4 9 14 6 8 10 10 11 8 6 5 9 12 25 21 21 12 14 21 18 15 7 13 14 11 15 16 17 17 11 16 15 10 4 5 13 14
12 8 9 10 7 4 7 10 9 11 2 9 6 8 7 6 10 9 8 14 10 15 21 19 22 13 10 15 15 15 10 7 4 11 13 14 15 16 9 3 4 7 5 11 13
10 7 12 10 9 5 8 10 15 9 19 8 4 8 12 5 7 8 10 12 10 12 12 20 20 24 16 15 12 19 19 8 12 9 11 19 10 14 15 8 6 5 4 11 14
8 10 10 10 9 7 10 15 12 15 14 7 11 13 11 6 6 7 12 13 4 6 10 5 14 3 23 22 18 15 17 17 18 15 9 6 9 10 12 8 6 8 9 9 13
8 8 11 8 8 9 11 22 17 13 8 6 14 4 14 10 8 6 11 3 6 3 8 2 6 2 10 9 16 25 10 13 11 15 12 13 15 9 2 10 9 4 10 10 11
6 5 2 11 9 8 13 17 17 3 4 7 10 8 9 1 6 4 4 6 1 3 7 6 6 9 5 11 12 13 18 13 12 13 10 9 5 1 6 9 11 9 4 7 9
4 5 7 10 10 8 14 17 11 9 10 12 7 8 10 1 4 3 4 5 5 7 7 6 6 6 8 5 10 12 14 20 11 14 12 13 10 13 6 5 11 14 4 5 4
5 8 5 9 8 12 13 15 16 13 14 15 14 7 4 8 5 5 1 4 6 4 6 6 5 7 5 9 5 8 9 7 9 7 14 10 6 7 4 4 9 12 12 6 2
4 5 8 7 10 15 15 16 15 16 18 17 14 12 12 13 10 8 2 1 0 2 3 6 9 10 9 8 7 3 8 9 6 8 11 15 16 17 14 15 14 13 13 14 5
4 6 6 6 12 16 14 10 18 16 13 14 18 20 16 16 15 16 15 11 8 7 8 5 11 11 13 14 14 14 13 14 16 14 15 13 16 16 16 14 12 14 14 14 15
4 6 10 14 9 17 16 18 15 15 16 14 14 14 16 18 16 7 13 12 10 5 5 4 8 10 12 14 16 19 20 21 21 20 21 18 19 18 17 19 19 20 20 18 16
3 12 8 6 14 12 12 19 18 16 9 18 13 11 12 11 14 12 10 10 10 6 4 5 4 4 11 11 9 11 17 19 20 22 20 21 18 15 15 19 17 18 20 20 19
Wind_Direction
354 349 345 343 343 343 338 338 337 330 326 324 326 326 321 317 311 290 270 267 161 200 243 187 208 221 224 232 237 250 263 256 264 277 303 258 247 262 250 272 275 279 241 271 110
344 341 338 336 335 335 333 332 328 325 325 323 325 323 317 319 308 284 299 133 132 198 219 207 205 208 221 225 224 240 239 256 290 318 301 294 276 292 280 279 284 283 247 221 246
346 341 338 336 337 335 331 327 322 321 321 321 323 320 316 313 292 316 28 2 190 199 238 220 225 216 232 228 228 234 250 277 284 263 274 265 266 278 284 282 287 305 332 314 206
343 337 337 335 334 331 329 321 320 318 318 318 318 318 311 288 273 78 84 93 169 215 227 229 227 223 233 238 233 247 258 266 280 278 264 264 273 281 283 283 289 297 331 285 239
332 329 333 335 333 328 325 321 318 313 313 312 313 316 306 247 254 169 132 153 197 204 231 219 227 225 231 240 247 249 254 277 267 265 264 270 264 274 274 278 279 327 277 255 238
321 327 335 335 330 327 323 318 312 307 305 306 303 297 257 262 293 279 282 255 237 212 228 237 237 245 257 253 264 269 258 266 271 264 261 258 265 262 263 267 287 263 254 228 222
320 327 330 329 327 323 318 312 308 305 302 297 283 232 258 247 316 305 235 256 248 229 236 234 251 257 254 261 269 267 267 271 258 256 257 256 261 257 253 240 263 250 233 231 221
309 314 317 317 318 319 316 310 306 303 299 287 242 221 257 273 300 276 259 251 235 268 251 276 265 263 254 268 276 265 258 262 260 238 251 236 259 282 147 207 248 220 232 223 221
292 300 307 312 317 319 316 308 301 294 276 199 205 225 269 110 237 258 249 245 233 230 240 250 245 245 238 239 253 249 255 259 254 194 245 203 260 217 177 208 252 234 222 217 219
279 288 297 306 317 320 314 299 282 251 222 226 254 237 253 282 343 310 278 252 228 226 213 220 231 233 226 230 234 236 245 240 258 280 194 258 248 253 271 210 241 253 240 210 204
277 287 309 320 323 321 316 302 220 201 223 271 281 267 288 282 282 239 215 206 232 211 208 199 219 223 229 221 243 253 273 282 271 257 276 269 266 271 272 271 230 226 249 217 198
280 299 316 322 320 311 294 305 31 336 291 271 258 261 264 280 283 247 232 232 207 219 214 220 229 232 239 242 234 244 256 261 271 276 241 274 275 269 262 256 262 257 218 221 185
275 278 321 325 309 290 301 7 326 328 268 286 249 247 254 225 237 245 220 214 238 230 228 227 229 223 240 228 235 242 244 254 258 274 262 256 272 263 255 250 249 251 248 231 189
282 273 313 319 282 336 272 31 332 338 278 238 193 207 177 230 237 233 246 220 226 246 241 241 242 247 229 236 226 242 229 252 272 271 262 249 272 276 291 224 217 222 226 224 191
270 267 299 303 303 288 23 323 312 332 276 105 137 113 142 223 347 168 210 214 237 229 238 234 230 232 229 233 225 249 255 253 250 262 261 254 259 266 251 251 231 231 242 195 192
263 260 284 263 238 259 321 302 261 230 241 175 146 189 199 207 238 122 189 234 234 243 249 256 244 249 245 225 236 225 233 226 257 248 244 238 250 261 249 212 208 148 241 167 187
258 253 255 286 268 5 295 259 226 242 111 205 212 191 235 195 215 208 178 205 206 207 226 227 251 217 252 224 195 205 213 200 229 243 243 229 227 236 278 176 246 177 181 174 182
258 249 234 251 251 248 258 231 239 255 228 109 284 254 239 180 203 212 205 219 222 234 253 219 228 227 193 224 192 206 216 218 203 247 256 223 231 235 230 248 259 288 235 165 179
266 239 243 237 225 227 243 224 233 249 297 327 284 251 196 196 271 205 218 223 111 291 267 243 224 39 213 219 238 198 217 237 275 262 274 256 218 257 273 229 222 229 202 196 190
243 258 246 200 188 216 232 241 244 270 348 290 260 250 250 171 225 216 185 138 148 326 276 78 263 233 180 224 245 234 216 220 232 250 244 255 251 250 172 221 202 269 214 222 196
244 247 154 174 183 219 228 231 235 251 314 284 278 284 285 45 287 197 173 109 335 24 317 321 271 149 206 212 200 206 237 243 253 234 258 261 261 264 92 324 314 293 55 284 204
255 238 152 159 200 209 233 234 259 250 243 254 275 273 284 258 256 256 198 36 12 303 296 32 313 270 246 27 335 318 216 225 233 239 227 242 258 131 95 352 330 352 360 30 211
241 243 171 196 224 219 235 249 252 221 245 239 234 219 273 287 290 203 321 58 1 332 18 8 236 245 228 222 223 253 239 283 249 277 268 256 242 266 85 319 312 309 316 311 212
250 235 198 205 248 271 231 232 240 224 258 263 261 273 273 258 257 279 254 196 17 322 6 293 271 268 292 11 349 242 246 239 277 260 248 245 261 268 277 285 300 290 302 304 160
209 247 238 201 228 235 251 263 230 217 229 234 240 250 255 265 269 266 261 262 234 160 248 253 264 260 263 285 277 267 261 256 250 249 258 266 281 294 300 299 295 299 286 282 286
218 228 266 248 249 217 231 247 248 240 217 232 240 219 228 240 241 278 239 242 243 218 261 350 259 263 250 265 273 277 272 269 264 260 259 255 260 270 262 268 275 277 285 286 277
236 262 270 268 244 241 243 230 237 245 218 257 237 243 252 239 249 293 303 301 282 281 246 246 241 231 256 253 268 270 255 256 263 263 256 250 259 277 289 291 278 258 262 268 273